Location: Poughquag
(41.6090°N, 73.6820°W)
Time: 12:46:01
(UTC-04:00)

A-11 Canister half - Pass Details

Date: 03 June 2020
Orbit: 1527 x 1682 km, 47.3° (Epoch: 06 July)

Event Time Altitude Azimuth Distance (km) Brightness Sun altitude
Rises 11:32:51 0° 290° (WNW) 4,694 11.3 64.5°
Reaches altitude 10° 11:35:53 10° 293° (WNW) 3,722 10.9 64.9°
Maximum altitude 11:45:20 74° 18° (NNE) 1,624 10.3 66.1°
Drops below altitude 10° 11:55:04 10° 104° (ESE) 3,828 11.5 67.3°
Sets 11:58:14 0° 106° (ESE) 4,834 11.9 67.6°
